CW1439 Weather Reports


time (UTC)temp
C
wind
direction
speed
KPH
gust
KPH
rain 1hr
cm
rain 24hr
cm
rain mn
cm
humidity
%
barometer
mb
20260505004345 18 256 0.0 11.3 0.00 0.00 0.00 53 1008.3
20260505003843 18 256 0.0 11.3 0.00 0.00 0.00 53 1008.2
20260505003401 18 217 3.2 6.4 0.00 0.00 0.00 51 1008.2
20260505002855 18 255 0.0 4.8 0.00 0.00 0.00 52 1008.2
20260505002352 18 290 1.6 12.9 0.00 0.00 0.00 52 1008.0
20260505001849 19 260 3.2 12.9 0.00 0.00 0.00 51 1008.0
20260505001345 19 287 3.2 6.4 0.00 0.00 0.00 50 1008.0
20260505000903 19 267 1.6 6.4 0.00 0.00 0.00 49 1008.0
20260505000359 20 262 1.6 3.2 0.00 0.00 0.00 49 1008.0
20260504235852 20 264 0.0 3.2 0.00 0.00 0.00 48 1007.9
20260504235349 20 148 0.0 3.2 0.00 0.00 0.00 47 1007.8
20260504234906 21 204 0.0 6.4 0.00 0.00 0.00 46 1007.8
20260504234340 21 205 1.6 8.0 0.00 0.00 0.00 45 1007.7
20260504233856 21 297 1.6 9.7 0.00 0.00 0.00 44 1007.7
20260504233353 21 246 4.8 9.7 0.00 0.00 0.00 43 1007.8
20260504232849 22 243 0.0 12.9 0.00 0.00 0.00 44 1007.7
20260504232347 22 218 0.0 14.5 0.00 0.00 0.00 43 1007.7
20260504231843 22 97 1.6 14.5 0.00 0.00 0.00 42 1007.6
20260504231344 22 226 4.8 9.7 0.00 0.00 0.00 42 1007.6
20260504230901 22 249 1.6 9.7 0.00 0.00 0.00 42 1007.6
20260504230338 22 148 6.4 12.9 0.00 0.00 0.00 42 1007.6
20260504225852 22 224 4.8 25.7 0.00 0.00 0.00 41 1007.6
20260504225349 22 188 9.7 25.7 0.00 0.00 0.00 41 1007.6
20260504224847 22 57 4.8 17.7 0.00 0.00 0.00 41 1007.5
20260504224341 22 284 4.8 17.7 0.00 0.00 0.00 41 1007.7
20260504223856 22 221 4.8 19.3 0.00 0.00 0.00 41 1007.6
20260504223413 22 219 8.0 25.7 0.00 0.00 0.00 40 1007.7
20260504222848 22 243 11.3 25.7 0.00 0.00 0.00 40 1007.6
20260504222344 23 201 8.0 25.7 0.00 0.00 0.00 41 1007.7
20260504221841 23 276 4.8 25.7 0.00 0.00 0.00 40 1007.6
20260504221355 23 131 6.4 19.3 0.00 0.00 0.00 40 1007.6
20260504220853 23 129 3.2 17.7 0.00 0.00 0.00 40 1007.6
20260504220350 23 245 8.0 17.7 0.00 0.00 0.00 40 1007.7
20260504215847 23 233 1.6 24.1 0.00 0.00 0.00 40 1007.7
20260504215342 23 294 4.8 24.1 0.00 0.00 0.00 40 1007.8
20260504214839 23 135 1.6 22.5 0.00 0.00 0.00 41 1007.7
20260504214341 23 136 4.8 22.5 0.00 0.00 0.00 40 1007.8
20260504213837 23 115 6.4 17.7 0.00 0.00 0.00 40 1007.8
20260504213415 23 316 6.4 19.3 0.00 0.00 0.00 40 1007.8
20260504212850 23 224 8.0 19.3 0.00 0.00 0.00 39 1007.8
20260504212346 23 228 8.0 17.7 0.00 0.00 0.00 40 1007.9
20260504211842 23 232 6.4 19.3 0.00 0.00 0.00 40 1007.9
20260504211339 23 207 9.7 20.9 0.00 0.00 0.00 39 1007.9
20260504210856 23 276 3.2 20.9 0.00 0.00 0.00 40 1007.9
20260504210353 23 280 8.0 16.1 0.00 0.00 0.00 39 1007.8
20260504205911 23 262 3.2 16.1 0.00 0.00 0.00 39 1007.9
20260504205406 22 276 3.2 20.9 0.00 0.00 0.00 41 1007.9
20260504204840 22 246 11.3 22.5 0.00 0.00 0.00 39 1007.9
20260504204356 23 183 9.7 22.5 0.00 0.00 0.00 40 1007.9
20260504203855 22 13 9.7 17.7 0.00 0.00 0.00 41 1007.9
20260504203351 22 218 6.4 19.3 0.00 0.00 0.00 40 1008.0
20260504202845 22 243 9.7 20.9 0.00 0.00 0.00 39 1008.1
20260504202341 22 226 9.7 20.9 0.00 0.00 0.00 40 1008.2
20260504201837 22 259 9.7 20.9 0.00 0.00 0.00 40 1008.3
20260504201354 23 229 1.6 17.7 0.00 0.00 0.00 41 1008.2
20260504200850 22 285 6.4 17.7 0.00 0.00 0.00 41 1008.4
20260504200351 22 202 11.3 19.3 0.00 0.00 0.00 41 1008.5
20260504195848 22 238 8.0 24.1 0.00 0.00 0.00 39 1008.5
20260504195345 22 228 4.8 24.1 0.00 0.00 0.00 40 1008.6
20260504194842 22 269 9.7 17.7 0.00 0.00 0.00 39 1008.7
20260504194340 22 235 3.2 20.9 0.00 0.00 0.00 42 1008.8
20260504193916 22 221 9.7 22.5 0.00 0.00 0.00 41 1008.9
20260504193352 22 248 11.3 22.5 0.00 0.00 0.00 41 1008.8
20260504192848 22 217 8.0 20.9 0.00 0.00 0.00 40 1009.0
20260504192343 22 174 9.7 20.9 0.00 0.00 0.00 42 1009.1
20260504191840 22 260 9.7 22.5 0.00 0.00 0.00 40 1009.1
20260504191416 22 273 8.0 22.5 0.00 0.00 0.00 39 1009.2
20260504190853 22 206 8.0 24.1 0.00 0.00 0.00 42 1009.2
20260504190348 22 233 8.0 24.1 0.00 0.00 0.00 41 1009.3
20260504185843 22 276 6.4 20.9 0.00 0.00 0.00 42 1009.3
20260504185359 22 274 6.4 22.5 0.00 0.00 0.00 41 1009.4
20260504184856 21 167 6.4 24.1 0.00 0.00 0.00 41 1009.4
20260504184354 21 252 8.0 24.1 0.00 0.00 0.00 42 1009.6
20260504183852 21 241 4.8 22.5 0.00 0.00 0.00 41 1009.6
20260504183350 21 149 6.4 22.5 0.00 0.00 0.00 43 1009.6
20260504182849 21 200 11.3 20.9 0.00 0.00 0.00 41 1009.6
20260504182345 21 260 8.0 20.9 0.00 0.00 0.00 42 1009.7
20260504181845 21 208 6.4 20.9 0.00 0.00 0.00 44 1009.8
20260504181341 21 205 4.8 22.5 0.00 0.00 0.00 43 1009.9
20260504180838 21 276 8.0 22.5 0.00 0.00 0.00 42 1010.1
20260504180356 21 248 3.2 27.4 0.00 0.00 0.00 42 1010.0
20260504175853 21 255 4.8 27.4 0.00 0.00 0.00 41 1010.2
20260504175412 21 262 9.7 20.9 0.00 0.00 0.00 42 1010.2
20260504174847 20 243 9.7 17.7 0.00 0.00 0.00 42 1010.2
20260504174344 20 283 9.7 19.3 0.00 0.00 0.00 41 1010.3
20260504173842 20 259 11.3 19.3 0.00 0.00 0.00 41 1010.3
20260504173338 21 248 8.0 22.5 0.00 0.00 0.00 42 1010.4
20260504172855 20 219 4.8 22.5 0.00 0.00 0.00 42 1010.4
20260504172413 20 250 6.4 20.9 0.00 0.00 0.00 43 1010.5
20260504171850 20 246 9.7 25.7 0.00 0.00 0.00 42 1010.6
20260504171346 20 197 6.4 17.7 0.00 0.00 0.00 42 1010.7
20260504170842 20 283 11.3 20.9 0.00 0.00 0.00 42 1010.7
20260504170345 20 236 8.0 20.9 0.00 0.00 0.00 44 1011.0
20260504160401 18 228 6.4 19.3 0.00 0.00 0.00 44 1011.6
20260504150854 17 276 1.6 17.7 0.00 0.00 0.00 49 1012.2
20260504150350 16 262 8.0 19.3 0.00 0.00 0.00 47 1012.4
20260504140842 13 288 1.6 4.8 0.00 0.00 0.00 55 1013.0
20260504140340 13 283 0.0 4.8 0.00 0.00 0.00 57 1013.1
20260504130340 10 226 0.0 3.2 0.00 0.00 0.00 64 1013.4
20260504110352 4 226 0.0 0.0 0.00 0.00 0.00 83 1013.4
20260504100350 3 227 0.0 0.0 0.00 0.00 0.00 85 1013.3
20260504081844 4 226 0.0 0.0 0.00 0.00 0.00 76 1013.7
20260504081403 4 226 0.0 0.0 0.00 0.00 0.00 77 1013.7
20260504080839 4 227 0.0 0.0 0.00 0.00 0.00 77 1013.7
20260504080355 4 226 0.0 0.0 0.00 0.00 0.00 77 1013.7
20260504070340 6 226 0.0 0.0 0.00 0.00 0.00 67 1013.6
20260504050351 7 230 0.0 1.6 0.00 0.00 0.00 60 1013.7
20260504045845 7 229 0.0 1.6 0.00 0.00 0.00 60 1013.6
20260504045341 7 229 0.0 0.0 0.00 0.00 0.00 60 1013.7
20260504044837 7 230 0.0 0.0 0.00 0.00 0.00 59 1013.7
20260504044354 8 229 0.0 1.6 0.00 0.00 0.00 59 1013.7
20260504043851 8 229 0.0 3.2 0.00 0.00 0.00 58 1013.7
20260504043407 8 229 0.0 3.2 0.00 0.00 0.00 58 1013.7
20260504042841 8 236 1.6 3.2 0.00 0.00 0.00 57 1013.7
20260504042338 8 228 1.6 3.2 0.00 0.00 0.00 57 1013.5
20260504041836 8 236 0.0 3.2 0.00 0.00 0.00 57 1013.6
20260504041506 8 237 0.0 3.2 0.00 0.00 0.00 58 1013.6
20260504040849 8 236 0.0 1.6 0.00 0.00 0.00 58 1013.6
20260504040407 8 236 0.0 0.0 0.00 0.00 0.00 58 1013.6
20260504035842 8 236 0.0 0.0 0.00 0.00 0.00 58 1013.5
20260504035338 8 236 0.0 8.0 0.00 0.00 0.00 56 1013.4
20260504034914 9 236 0.0 8.0 0.00 0.00 0.00 56 1013.3
20260504034349 8 190 4.8 8.0 0.00 0.00 0.00 55 1013.2
20260504033844 8 255 3.2 6.4 0.00 0.00 0.00 56 1013.2
20260504033341 8 228 0.0 1.6 0.00 0.00 0.00 56 1013.2
20260504032839 8 228 0.0 1.6 0.00 0.00 0.00 55 1013.1
20260504032355 9 228 0.0 1.6 0.00 0.00 0.00 55 1013.1
20260504031853 9 228 0.0 1.6 0.00 0.00 0.00 55 1013.1
20260504031348 9 228 0.0 3.2 0.00 0.00 0.00 55 1013.1
20260504030850 9 228 0.0 3.2 0.00 0.00 0.00 54 1013.0
20260504030347 9 228 0.0 4.8 0.00 0.00 0.00 53 1012.9
20260504025845 10 248 1.6 4.8 0.00 0.00 0.00 53 1013.0
20260504025402 10 232 1.6 4.8 0.00 0.00 0.00 52 1013.0
20260504024836 10 249 1.6 4.8 0.00 0.00 0.00 52 1013.0
20260504024353 10 236 1.6 3.2 0.00 0.00 0.00 52 1013.0
20260504023850 10 214 0.0 1.6 0.00 0.00 0.00 51 1013.0
20260504023406 10 214 0.0 3.2 0.00 0.00 0.00 51 1013.0
20260504022842 10 214 1.6 3.2 0.00 0.00 0.00 51 1013.1
20260504022339 10 214 0.0 3.2 0.00 0.00 0.00 50 1013.0
20260504021856 10 214 0.0 3.2 0.00 0.00 0.00 51 1013.1
20260504021354 10 214 0.0 3.2 0.00 0.00 0.00 51 1013.1
20260504020851 10 206 0.0 3.2 0.00 0.00 0.00 51 1013.2
20260504020347 10 198 0.0 3.2 0.00 0.00 0.00 50 1013.2
20260504015843 10 200 0.0 4.8 0.00 0.00 0.00 50 1013.1
20260504015340 10 204 1.6 4.8 0.00 0.00 0.00 50 1013.1
20260504014854 10 184 1.6 3.2 0.00 0.00 0.00 50 1013.1
20260504014411 10 194 0.0 3.2 0.00 0.00 0.00 49 1013.1
20260504013846 10 193 1.6 3.2 0.00 0.00 0.00 50 1013.0
20260504013403 10 193 0.0 3.2 0.00 0.00 0.00 49 1013.0
20260504012844 10 192 1.6 3.2 0.00 0.00 0.00 49 1012.9
20260504012341 10 192 0.0 1.6 0.00 0.00 0.00 49 1012.8
20260504011837 11 193 1.6 3.2 0.00 0.00 0.00 48 1012.8
20260504011414 11 201 0.0 3.2 0.00 0.00 0.00 48 1012.8
20260504010849 11 193 0.0 3.2 0.00 0.00 0.00 47 1012.8
20260504010406 11 193 0.0 6.4 0.00 0.00 0.00 47 1012.8
20260504005841 11 210 3.2 8.0 0.00 0.00 0.00 45 1012.8
20260504005339 12 210 1.6 9.7 0.00 0.00 0.00 45 1012.7
20260504004915 12 195 3.2 9.7 0.00 0.00 0.00 44 1012.7